Home   Weather   Ilanz   Past weeks

Flag for Switzerland Past Weather in Ilanz, Graubünden, Switzerland — Yesterday and Last 2 Weeks

Now
51 °F

Passing clouds.


Feels Like: 51 °F
Forecast: 46 / 66 °F
Wind: 1 mph from West

Location: Chur

Current Time: Sep 26, 2016 at 5:50:28 AM

Latest Report: Sep 26, 2016 at 5:00 AM


Visibility: 11 mi

Pressure: 30.22 "Hg (27.76 "Hg at 703m altitude)

Humidity: 93%

Dew Point: 48 °F

Location of IlanzLocation

Past Weather in Ilanz — Graph

°F

Ilanz Temperature Yesterday

Maximum temperature yesterday: 72 °F (at 4:00 PM)
Minimum temperature yesterday: 51 °F (at 8:00 AM)
Average temperature yesterday: 60 °F

High & Low Weather Summary for the Past Weeks

 TemperatureHumidityPressure
High84 °F (Sep 13, 3:00 PM)99% (Sep 19, 3:00 AM)30.35 "Hg (Sep 19, 3:00 AM)
Low49 °F (Sep 22, 8:00 AM)32% (Sep 14, 2:00 PM)29.80 "Hg (Sep 14, 5:00 PM)
Average61 °F75%30.05 "Hg
* Reported Sep 11 4:00 AM — Sep 26 4:00 AM, Ilanz, Weather by CustomWeather, © 2016

Note: Actual official high and low records may vary slightly from our data, if they occured in-between our weather recording intervals... More about our weather records

Advertising

Ilanz Weather History for the Previous 24 Hours

Scroll right to see more
 ConditionsComfort  
Time TempWeatherWind HumidityBarometerVisibility
4:00 AM
Mon, Sep 26
51 °FCool.1 mph93%30.22 "HgN/A
3:00 AM52 °FCool.1 mph93%30.22 "HgN/A
2:00 AM52 °FPassing clouds.1 mph93%30.22 "Hg11 mi
1:00 AM53 °FCool.1 mph89%30.21 "HgN/A
12:00 AM54 °FCool.1 mph90%30.20 "HgN/A
11:00 PM
Sun, Sep 25
56 °FPassing clouds.No wind89%30.18 "Hg11 mi
10:00 PM60 °FCool.1 mph79%30.15 "HgN/A
9:00 PM60 °FCool.2 mph78%30.14 "HgN/A
8:00 PM63 °FPassing clouds.9 mph68%30.11 "Hg12 mi
7:00 PM65 °FMild.8 mph61%30.08 "HgN/A
6:00 PM69 °FMild.12 mph49%30.04 "HgN/A
5:00 PM71 °FPassing clouds.12 mph48%30.01 "Hg19 mi
4:00 PM72 °FMild.13 mph46%30.01 "HgN/A
3:00 PM72 °FMild.13 mph49%30.02 "HgN/A
2:00 PM70 °FMild.12 mph47%30.04 "HgN/A
1:00 PM68 °FMild.7 mph48%30.08 "HgN/A
12:00 PM65 °FMild.2 mph50%30.11 "HgN/A
11:00 AM62 °FSunny.3 mph56%30.15 "Hg16 mi
10:00 AM58 °FCool.3 mph66%30.19 "HgN/A
9:00 AM52 °FCool.3 mph78%30.23 "HgN/A
8:00 AM51 °FPassing clouds.2 mph80%30.24 "Hg10 mi
7:00 AM52 °FCool.6 mph79%30.23 "HgN/A
6:00 AM53 °FCool.5 mph78%30.22 "HgN/A
5:00 AM53 °FClear.6 mph79%30.23 "Hg12 mi
Weather by CustomWeather, © 2016

See weather overviewHow to use our weather pages